Grand Marais, MN

8:17 AM CST on November 14, 2019 (GMT -0600)
Grand Marais

Weather History for KGNA - September, 2019

Change the Weather History Date:

Thursday, September 12, 2019

  Actual Average (KCKC) Record (KCKC)
Temperature  
Mean Temperature 50 °F -  
Max Temperature 53 °F 63 °F 80 °F (2002)
Min Temperature 48 °F 44 °F 28 °F (2007)
Degree Days  
Heating Degree Days 14    
Moisture  
Dew Point 47 °F    
Average Humidity 85    
Maximum Humidity 97    
Minimum Humidity 77    
Precipitation  
Precipitation 0.44 in - - ()
Sea Level Pressure  
Sea Level Pressure 30.21 in    
Wind  
Wind Speed 15 mph (ENE)    
Max Wind Speed 25 mph    
Max Gust Speed 38 mph    
Averages and records for this station are not official NWS values.
T = Trace of Precipitation, MM = Missing Value Source: NWS Daily Summary

Daily Weather History Graph

Daily Weather History Graph

Search for Another Location

Airport or City:

Astronomy

Sep. 12, 2019 Rise Set
Actual Time 6:34 AM CDT 7:20 PM CDT
Civil Twilight 6:03 AM CDT 7:51 PM CDT
Nautical Twilight 5:25 AM CDT 8:28 PM CDT
Astronomical Twilight 4:46 AM CDT 9:07 PM CDT
Moon 7:13 PM CDT (9/12) 4:42 AM CDT (9/12)
Length of Visible Light 13h 48m
Length of Day
12h 45m
Waxing Gibbous, 98% of the Moon is Illuminated
Sep 12
Waxing Gibbous
Sep 13
Full
Sep 21
Last Quarter
Sep 28
New
Oct 5
First Quarter

Hourly Weather History & Observations

Time (CDT) Temp. Dew Point Humidity Pressure Visibility Wind Dir Wind Speed Gust Speed Precip Events Conditions
12:56 AM 52.0 °F 46.0 °F 80% 30.30 in - NE 11.5 mph 18.4 mph N/A   Unknown
1:56 AM 51.1 °F 46.0 °F 83% 30.32 in - NE 12.7 mph 20.7 mph N/A   Unknown
2:56 AM 51.1 °F 45.0 °F 80% 30.33 in - ENE 11.5 mph 21.9 mph N/A   Unknown
3:56 AM 51.1 °F 44.1 °F 77% 30.30 in - NE 10.4 mph 18.4 mph N/A   Unknown
4:56 AM 50.0 °F 44.1 °F 80% 30.32 in - ENE 11.5 mph 19.6 mph N/A   Unknown
6:56 AM 50.0 °F 45.0 °F 83% 30.34 in - ENE 12.7 mph - N/A   Unknown
7:56 AM 50.0 °F 45.0 °F 83% 30.34 in - ENE 15.0 mph 21.9 mph N/A   Unknown
8:56 AM 48.9 °F 46.0 °F 90% 30.32 in - NE 15.0 mph - N/A   Unknown
9:56 AM 51.1 °F 46.0 °F 83% 30.29 in - ENE 17.3 mph 25.3 mph N/A   Unknown
10:56 AM 51.1 °F 46.0 °F 83% 30.28 in - ENE 15.0 mph 28.8 mph N/A   Unknown
11:56 AM 52.0 °F 46.0 °F 80% 30.27 in - ENE 21.9 mph 29.9 mph N/A   Unknown
12:56 PM 53.1 °F 46.0 °F 77% 30.25 in - ENE 19.6 mph 31.1 mph N/A   Unknown
1:56 PM 52.0 °F 46.0 °F 80% 30.23 in - ENE 20.7 mph 33.4 mph N/A   Unknown
2:56 PM 51.1 °F 46.9 °F 86% 30.23 in - NE 21.9 mph 32.2 mph N/A   Unknown
3:56 PM 51.1 °F 46.9 °F 86% 30.20 in - ENE 20.7 mph 32.2 mph N/A   Unknown
4:56 PM 52.0 °F 46.9 °F 83% 30.16 in - ENE 25.3 mph 36.8 mph N/A   Unknown
5:56 PM 52.0 °F 46.9 °F 83% 30.12 in - ENE 24.2 mph 38.0 mph N/A   Unknown
6:56 PM 51.1 °F 48.0 °F 89% 30.12 in - ENE 18.4 mph 32.2 mph N/A   Unknown
7:56 PM 51.1 °F 48.9 °F 92% 30.05 in - ENE 24.2 mph 36.8 mph 0.20 in   Unknown
8:56 PM 52.0 °F 48.9 °F 89% 30.02 in - ENE 23.0 mph 35.7 mph 0.11 in   Unknown
10:56 PM 52.0 °F 51.1 °F 97% 29.99 in - ENE 17.3 mph 26.5 mph 0.12 in   Unknown
11:56 PM 53.1 °F 52.0 °F 96% 29.95 in - ENE 15.0 mph - 0.01 in   Unknown